Location: Poprad
(49.0500°N, 20.3000°E)
Time: 10:39:32
(UTC+01:00)

ISS - Pass Details

Date: 01 February 2021
Orbit: 417 x 422 km, 51.6° (Epoch: 07 March)

Event Time Altitude Azimuth Distance (km) Brightness Sun altitude
Rises 17:16:56 0° 286° (WNW) 2,373 1.1 -7.1°
Reaches altitude 10° 17:19:03 10° 289° (WNW) 1,508 0.0 -7.4°
Maximum altitude 17:22:25 64° 12° (NNE) 472 -3.6 -7.9°
Drops below altitude 10° 17:25:47 10° 95° (E) 1,507 -1.5 -8.4°
Enters shadow 17:25:47 10° 95° (E) 1,512 -1.5 -8.4°
